sat.trackr.live / text

‹ back to catalog

ONEWEB-0296

NORAD 49085 · 2021-075L

PAYLOAD ACTIVE UNKNOWN

§ Identity

Operator
Country
UK
Launch date
2021-08-21
Launch site
TYMSC
Launch vehicle
Mass (kg)
RCS (m²)

Purposes: comms

External: N2YO · Heavens-Above · Gunter

§ Orbital elements

Epoch: 2026-05-25T03:13:01.737696Z

Period
109.72 min
Inclination
87.8963°
Eccentricity
0.0001833
Mean motion
13.12440714 rev/d
Perigee alt
1,212.3 km
Apogee alt
1,215.1 km
Semi-major
7,591.9 km
B*
-4.5066e-4
RAAN
355.2498°
Arg perigee
97.2547°
Mean anomaly
262.8790°
Rev number
23,155

§ Raw data

ONEWEB-02961 49085U 21075L   26145.13404789 -.00000149  00000+0 -45066-3 0  99942 49085  87.8963 355.2498 0001833  97.2547 262.8790 13.12440714231551

JSON: /api/v1/satellites/49085 · /tle

For live sub-satellite position, see the globe view (requires WebGL).

§ Visibility from observer

Set your observer location to see the next 7 days of passes ≥ 10°. The values pass through the URL so the page stays shareable.

No JS? Fill the form by hand. The geolocation button needs JavaScript.